Location: Unspecified
(29.9680°N, 0.0000°E)
Time: 17:11:24
(UTC+00:00)

A-11 Canister half - Pass Details

Date: 22 June 2019
Orbit: 1526 x 1683 km, 47.3° (Epoch: 17 July)

Event Time Altitude Azimuth Distance (km) Brightness Sun altitude
Rises 00:39:12 0° 167° (SSE) 4,820 - -35.8°
Reaches altitude 10° 00:47:14 10° 127° (SE) 3,786 - -35.5°
Maximum altitude 00:47:55 10° 122° (ESE) 3,775 - -35.5°
Drops below altitude 10° 00:48:35 10° 118° (ESE) 3,778 - -35.4°
Exits shadow 00:48:55 10° 116° (ESE) 3,785 10.9 -35.4°
Sets 00:56:23 0° 78° (ENE) 4,720 11.9 -35.0°
